Accueil
METAR-TAF:

METAR-TAF

Aéroports :

Saint-Brieuc, France

Aéroport de Saint-Brieuc Armor

latitude: 48-32N, longitude: 002-51W, altitude: 138 m

Observation

Le bulletin a été fait il y a 29 minutes, à 10:30 UTC
Vent 13 kt de sud-ouest, variant entre sud et ouest
Température 14°C
Humidité 82%
Pression 1003 hPa
Visibilité 10 km ou plus
Quelques nuages à une hauteur de 1500 ft

METAR: LFRT 221030Z AUTO 22013KT 180V280 9999 FEW015 14/11 Q1003

Heure: 11:59 (10:59 UTC)


TAF: absent

Observations et prévisions météorologiques de plus de 4000 aéroports (messages METAR et TAF).

Les stations disponibles sont représentées par des disques jaunes et rouges sur la carte.

Passer la souris dessus pour voir le nom de la station.

Cliquer dessus pour voir les observations et prévisions météorologiques.

Pour changer de carte: cliquez sur les boutons verts avec une croix noire pour zoomer, sur le bouton vert avec un tiret pour effectuer un zoom arrière, ou sur les flèches vertes pour les cartes adjacentes.


METAR-TAF: